Showing default

OPS 4412 (TRANSIT 9), 801

Orbit data source: Space-Track

OPS 4412 (TRANSIT 9), 801 is a payload satellite owned by USN BuWeps (US) in LEO that was launched on Thu, 04 Jun 1964 UTC via an SCOUT X-4 launch vehicle from the Air Force Western Test Range (AFWTR). Payload-class satellites include a variety of spacecraft equipped with specific instruments for various scientific and technological missions. These include communications satellites like Starlink; space stations such as the ISS; scientific satellites like the Hubble; Earth observation satellites from companies like Planet Labs, Umbra, and HawkEye 360; GPS; miniature CubeSats for education and research; and military/defense satellites.

Loading next visibility...
Identifier
801, 1964-026A
Orbit
LEO
Country
Flag of USUS
Related business
Manufacturer
APL
Mission
Spacecraft
Bus & Motor
TRANSIT 5, Unknown motor
Mass
54 kg wet, 54 kg dry
Launch date (UTC)
1964-06-04 (61 years ago)
Launch vehicle
SCOUT X-4
Launch site
Air Force Western Test Range (AFWTR)
Object type
Payload
Rocket body
Debris
Shape & HBR
Unknown
Radar Cross Section
Large (>1 m²)

Expand to show TLE details & history
Last TLE update: 11 hours ago

TLE from 11 hours ago
0 OPS 4412 (TRANSIT 9)
1   801U 64026A   25312.61764465  .00000696  00000-0  33900-3 0  9998
2   801  90.4531 176.6366 0048537  19.2430 341.0578 14.16833541154918
Epoch: 2025-11-08T14:49Z
TLE epoch observation values (Epoch: 2025-11-08T14:49:24.497Z)
Latitude
0.00005°
Longitude
-93.76015°
Altitude
806.023 km
Speed
7.467 km/s
True Right ascension
11h 46m 32s
True Declination
0° 00' 00"
Sunlit
Object was in daylight at epoch
Visualization orbit readout
Latitude
Unknown
Longitude
Unknown
Altitude
Unknown
Speed
Unknown
Apparent Right ascension
Unknown
Apparent Declination
Unknown
Sunlit
N/A
Visualization observer readout
Local Sidereal Time
21:57:44
Azimuth
Unknown
Elevation
Unknown
Doppler factor
Unknown
Orbital elements
Apogee altitude
868.036 km
Perigee altitude
798.034 km
Semi-major axis
7,211.172 km
Eccentricity
0.00485
Inclination
90.4531°
RAAN
176.6366°
Arg. of periapsis
19.243°
True anomaly
340.87621°
Mean anomaly
341.0578°
Eccentric anomaly
340.96711°
Mean motion
3.54433 °/min
Orbital period
101.57 mins
BSTAR
0.000339
Loading maneuver chart data...
Computing Atmospheric mass density...
Loading historical data...
Loading historical data...
Loading historical data...
Loading historical data...
Loading historical data...
Loading historical data...
Loading historical data...

Documentation

Showing up to 5 results
|